Zurück zum Katalog

SL-14 DEB

AktivPO
NORAD 45338·DEBRIS·🇷🇺 Russia

Gestartet Aug 15, 1991 von Plesetsk Cosmodrome

Loading…

Nächste Überflüge (nächste 24 Stunden)

TLE

AktuellSource: Space-Track

Epoche: Sep 13, 2026, 21:08 UTC

1 45338U 91056CC  26256.88088069  .00008706  00000-0  73154-2 0  9995
2 45338  82.5625 313.9698 0140808 138.0238 223.1818 13.83419548323995

Verfolge SL-14 DEB in Echtzeit mit AllMySat

Download on the App Store